Weather Roundup
Issued by NWS

Home | Current Version | Previous Version | Text Only | Print | Product List | Glossary On
Versions: 1 2 3 4 5 6 7 8 9 10 11 12 13 14 15 16 17 18 19 20 21 22 23 24 25 26 27 28 29 30 31 32 33 34 35 36 37 38 39 40 41 42 43 44 45 46 47 48 49 50
000
NZUS93 KARX 301910
HRRWXR

CURRENT HOURLY OBSERVATIONS ACROSS
MUCH OF THE UPPER MISSISSIPPI VALLEY
NATIONAL WEATHER SERVICE LA CROSSE WI
200 PM CDT SAT MAY 30 2015


...SOUTHEAST MINNESOTA...


CITY           SKY/WX    TMP DP  RH WIND       PRES   REMARKS
ROCHESTER      CLOUDY    55  48  77 N14       30.22R
ROCHESTER/MAYO CLOUDY    55  47  77 N6        30.21S
WINONA         CLOUDY    59  50  72 N8        30.20R
AUSTIN         CLOUDY    55  48  76 N12       30.19S
ALBERT LEA     PTSUNNY   59  46  63 N15       30.20F
DODGE CENTER   CLOUDY    55  48  76 N15       30.21S
PRESTON        CLOUDY    55  48  80 N14       30.19S
OWATONNA       PTSUNNY   57  45  62 N14       30.22S
FARIBAULT      MOSUNNY   59  45  58 N14       30.23S
$$

...ELSEWHERE IN MINNESOTA...


CITY           SKY/WX    TMP DP  RH WIND       PRES   REMARKS
MINNEAPOLIS    PTSUNNY   61  43  51 NE8G20    30.23F
INTNL FALLS    SUNNY     48  28  46 VRB6      30.35F
DULUTH         MOSUNNY   52  35  52 E9        30.27S
RED WING       PTSUNNY   57  45  62 NE9       30.22S
REDWOOD FALLS  SUNNY     59  41  51 N12G18    30.26F
MANKATO        PTSUNNY   59  43  55 NE16      30.23S
WORTHINGTON    SUNNY     55  41  58 N18G26    30.25S
FAIRMONT       MOSUNNY   57  43  58 N17       30.23S
$$

...SOUTHWEST WISCONSIN...


CITY           SKY/WX    TMP DP  RH WIND       PRES   REMARKS
LA CROSSE      CLOUDY    61  51  70 N9        30.17R
PRAIRIE DU CHI CLOUDY    57  52  82 NE12G18   30.13R
BOSCOBEL       CLOUDY    58  51  78 NE10G20   30.14S
LONE ROCK      CLOUDY    57  52  83 NE18      30.14S
PLATTEVILLE    CLOUDY    56  54  94 NE18G25   30.11R
FORT MC COY    CLOUDY    56  53  90 NE7       30.18R
CAMP DOUGLAS   CLOUDY    55  55 100 NE8       30.16R
VIROQUA        CLOUDY    57  53  88 NE13      30.16R
WIS DELLS      LGT RAIN  52  49  92 NE12G23   30.16R
$$

...ELSEWHERE IN WISCONSIN...


CITY           SKY/WX    TMP DP  RH WIND       PRES   REMARKS
MILWAUKEE      RAIN      46  44  93 N16G36    30.11S FOG
MADISON        LGT RAIN  53  49  86 NE16G28   30.13R
GREEN BAY      CLOUDY    55  47  74 NE13      30.18R
EAU CLAIRE     CLOUDY    56  45  66 N9        30.22R
BLACK RVR FLS  CLOUDY    59  49  69 NE8       30.18R
MEDFORD        CLOUDY    56  46  68 N10       30.20S
WAUSAU         CLOUDY    58  44  60 E10       30.18R
WIS RAPIDS     CLOUDY    56  47  71 E6        30.19R
MARSHFIELD     CLOUDY    58  46  64 N12       30.18R
RICE LAKE      CLOUDY    56  39  53 N13       30.26S
$$

...NORTHEAST IOWA...


CITY           SKY/WX    TMP DP  RH WIND       PRES   REMARKS
DECORAH        CLOUDY    57  52  82 N12       30.15R
MASON CITY     CLOUDY    57  49  74 N21       30.20R
CHARLES CITY   CLOUDY    59  54  82 NE16      30.16S
OELWEIN        CLOUDY    59  54  82 NE20G25   30.12S
$$

...ELSEWHERE IN IOWA...


CITY           SKY/WX    TMP DP  RH WIND       PRES   REMARKS
DES MOINES     CLOUDY    63  52  67 N10       30.12S
IOWA CITY      CLOUDY    63  59  87 N10       30.06R
FORT DODGE     PTSUNNY   61  48  63 N15G22    30.18F
$$

...NORTHERN ILLINOIS...


CITY           SKY/WX    TMP DP  RH WIND       PRES   REMARKS
CHICAGO-OHARE  LGT RAIN  50  48  93 N20G26    30.05S
CHICAGO-MIDWAY LGT RAIN  52  49  89 N21       30.03S FOG
MOLINE         CLOUDY    66  60  81 N10       29.99R
ROCKFORD       LGT RAIN  54  50  86 NE20      30.09R
PEORIA         LGT RAIN  70  65  84 N5        29.97F
$$

NOTE: "FAIR" INDICATES FEW OR NO CLOUDS BELOW 12,000 FEET WITH NO
SIGNIFICANT WEATHER AND/OR OBSTRUCTIONS TO VISIBILITY. WIND
SPEEDS ARE IN MILES-PER-HOUR.



USA.gov is the U.S. government's official web portal to all federal, state and local government web resources and services.